RH
67 68 64 63 65 66 83 98 100 87 91 100 100 97 84 82 84 92 91 83 59 72 74 73 70 74 61 50 53 64 63 73 95 86 62 59 69 82 79 93 84 94 93 82
66 68 64 65 67 67 99 99 99 88 90 99 97 88 95 89 92 95 75 68 56 56 65 80 60 61 50 48 51 64 60 83 89 80 68 66 77 70 63 70 83 95 96 73
65 65 64 66 68 69 94 98 96 97 96 96 93 90 98 96 89 88 66 58 55 73 72 80 81 68 62 58 55 65 58 63 80 91 80 73 86 73 69 76 99 90 89 65
65 67 66 68 67 72 94 98 99 94 98 90 90 96 97 99 97 79 66 59 61 75 91 74 70 70 72 68 65 60 66 88 79 76 70 68 75 70 70 86 77 86 68 64
64 68 71 67 67 74 94 100 96 97 98 88 87 83 96 100 92 84 67 67 57 59 76 62 68 67 76 81 72 68 72 82 85 82 69 71 80 71 72 69 66 74 70 69
58 59 62 65 66 78 97 95 92 99 91 83 90 80 95 88 86 70 64 62 72 78 74 64 59 59 56 67 81 90 89 89 85 95 71 75 83 72 67 66 62 59 75 56
59 59 59 61 63 73 96 96 98 98 95 91 82 67 74 90 84 83 64 70 79 70 64 62 69 70 72 68 64 74 85 89 82 97 86 94 59 75 71 75 74 61 59 54
57 59 59 60 61 65 97 94 99 97 98 87 78 63 70 81 70 76 82 74 74 70 77 87 89 91 82 77 73 75 72 85 96 98 95 73 85 85 86 91 76 72 75 64
59 59 60 61 64 65 92 95 95 99 99 92 86 77 73 85 78 80 83 77 78 79 93 88 88 81 78 90 82 83 79 86 97 96 97 97 69 66 64 74 95 77 72 77
59 60 60 60 62 64 84 94 88 98 96 90 87 84 88 67 73 87 91 91 89 85 95 95 89 81 59 93 89 95 98 99 98 92 96 82 56 66 64 94 74 74 83 79
61 59 58 60 60 62 76 90 92 97 98 95 88 86 84 83 84 92 91 89 89 94 94 94 89 91 70 76 79 90 84 89 87 82 95 91 49 65 72 62 60 59 78 74
64 57 55 57 63 62 67 95 87 89 99 95 91 82 73 83 87 91 88 88 90 86 95 97 94 92 84 83 83 82 81 79 88 82 77 53 52 52 51 54 61 71 74 81
64 61 57 59 65 64 67 90 90 94 98 95 97 93 84 77 85 84 92 94 81 87 88 93 92 98 90 94 85 76 71 61 68 69 58 53 47 51 71 72 81 79 79 80
65 61 61 60 65 67 70 89 89 92 96 99 86 75 88 88 88 89 87 84 90 87 92 96 97 93 85 90 83 80 65 57 61 64 58 56 62 71 76 74 72 71 72 75
65 67 65 65 72 70 81 92 87 84 96 98 94 84 91 90 92 95 92 86 92 98 99 95 88 88 84 92 91 93 72 71 75 75 59 65 67 67 71 72 70 73 77 86
65 71 76 76 79 73 90 96 96 86 92 99 99 86 95 94 94 96 98 98 96 97 96 95 90 77 85 95 87 70 67 66 62 63 62 59 68 69 72 68 70 72 76 81
68 73 76 80 81 92 95 97 98 89 94 99 99 98 93 93 96 98 98 98 97 97 95 91 90 91 85 87 96 62 65 72 70 68 63 68 73 77 68 68 71 68 69 70
70 78 80 82 81 84 95 84 80 92 98 98 99 98 94 94 98 98 96 98 98 97 95 93 94 93 90 98 86 81 76 77 74 72 68 73 75 69 68 68 67 71 71 68
72 81 80 91 95 98 93 92 87 91 98 100 100 100 98 95 95 97 99 97 100 97 96 91 97 94 96 90 87 86 85 80 73 78 80 81 82 78 74 72 73 74 72 64
82 90 92 90 91 93 97 99 99 99 98 99 99 90 95 96 93 99 99 98 100 100 99 98 100 97 89 72 80 88 84 86 86 84 84 89 91 86 80 78 74 71 66 61
97 99 100 98 92 99 99 100 100 99 100 98 96 92 92 90 98 100 98 100 100 100 99 99 100 99 76 71 83 84 87 87 87 85 80 73 83 89 82 78 69 60 59 63
92 96 96 99 100 100 100 100 100 100 99 97 98 97 97 97 97 100 100 100 100 99 97 100 99 94 70 76 84 85 89 83 85 82 74 72 71 74 68 64 62 59 54 51
97 100 100 100 100 100 100 99 100 100 100 100 100 100 98 97 97 100 100 100 100 95 99 96 91 78 75 80 84 88 84 82 85 84 79 76 82 72 71 69 58 54 51 47
100 100 99 100 100 99 99 99 99 100 100 100 100 100 99 97 100 99 100 99 99 98 97 96 96 90 86 86 84 88 88 85 85 85 82 78 73 71 68 68 60 52 53 54
100 100 99 100 99 100 100 100 100 100 99 100 100 100 98 100 100 97 99 98 99 96 99 100 97 92 93 92 88 91 91 88 84 83 82 77 70 66 61 56 52 51 52 52
100 100 99 98 100 100 100 100 100 100 99 100 100 100 99 99 100 98 98 99 94 99 98 98 97 94 92 92 90 92 92 92 86 81 78 73 70 66 61 56 54 52 55 58
99 99 96 98 99 100 100 99 99 92 98 100 100 99 94 95 96 98 95 98 98 98 98 98 92 93 93 91 91 93 94 91 87 84 83 76 70 63 63 71 78 73 63 60
Wind_Speed
21 21 22 23 25 27 9 2 2 4 3 2 0 1 5 8 7 7 6 4 7 6 5 6 4 10 1 9 5 6 1 4 4 6 5 6 6 6 6 5 6 3 4 9
19 20 21 22 24 25 4 3 2 3 3 3 3 1 6 2 3 7 2 4 3 9 5 6 2 8 4 15 7 9 4 1 3 2 1 2 6 8 7 5 1 6 4 9
21 19 20 22 23 25 3 2 2 4 2 2 3 3 2 4 7 6 6 2 14 6 4 6 5 7 6 4 4 11 4 3 5 6 4 4 5 12 16 11 4 3 9 17
19 19 19 21 24 25 3 2 2 3 3 3 4 2 3 3 3 4 5 12 11 7 5 11 8 7 5 6 5 4 5 2 2 4 6 5 6 8 13 15 17 11 3 13
18 18 19 20 22 23 2 3 3 2 4 6 2 3 4 4 4 8 4 9 7 13 4 4 6 7 3 3 1 3 2 1 2 4 8 8 10 13 13 15 15 21 17 24
17 17 17 19 20 14 3 2 2 2 5 3 2 3 4 3 4 6 8 12 10 13 10 13 6 5 5 8 7 3 4 2 1 5 3 5 6 15 14 10 12 17 17 21
15 15 15 16 17 15 2 2 2 3 4 3 1 4 6 2 2 2 5 8 5 2 3 5 7 9 10 6 6 6 6 2 1 4 3 2 7 4 6 9 8 10 12 15
16 14 14 14 14 16 1 2 2 2 3 5 5 5 3 3 4 6 6 6 4 5 6 4 4 4 4 3 2 5 4 3 1 1 3 7 0 4 5 4 4 6 13 12
13 15 13 13 14 14 2 1 1 2 3 4 4 3 2 1 3 3 3 5 5 6 3 2 3 3 4 4 2 2 3 4 2 1 2 4 1 3 6 6 3 6 4 6
13 13 14 13 12 11 4 3 2 2 3 4 4 2 2 2 2 2 3 2 3 3 1 1 1 2 3 5 6 5 3 3 5 4 3 8 8 4 4 1 4 3 5 5
13 12 13 13 12 10 5 4 2 1 2 7 4 5 2 4 2 3 3 4 2 2 1 2 2 2 3 3 6 7 7 6 4 5 4 9 4 2 1 5 4 4 6 5
13 13 13 12 11 9 4 2 1 2 3 5 3 9 10 5 2 4 2 1 3 3 2 0 2 2 3 3 3 3 4 8 6 9 8 6 5 5 5 5 6 3 3 4
15 13 14 12 12 10 4 3 2 2 3 4 3 4 0 3 1 1 4 1 3 2 3 2 2 4 1 3 5 6 4 6 3 2 6 11 8 6 2 3 2 1 1 1
15 15 13 12 11 10 6 2 1 2 3 3 2 0 1 1 2 1 1 4 4 4 2 2 2 3 1 3 4 2 6 7 6 5 8 8 1 1 1 1 2 2 2 1
17 15 13 11 12 9 5 3 4 6 3 3 4 6 0 2 1 2 1 3 4 2 3 3 4 2 2 3 1 4 4 6 5 6 7 4 2 1 0 3 1 1 2 2
16 14 16 15 12 6 0 3 3 6 4 3 3 1 3 2 2 3 3 4 3 3 3 2 3 5 3 2 3 5 5 4 7 5 4 3 4 3 2 4 3 2 4 4
19 20 17 16 11 3 4 1 2 5 3 3 3 3 0 2 1 1 1 2 2 2 3 4 2 2 2 3 3 5 4 3 2 1 0 2 4 4 4 7 5 5 5 5
20 25 9 8 10 5 4 5 10 4 2 2 2 3 2 4 2 2 2 2 2 4 2 2 3 2 3 4 5 6 4 3 6 6 5 1 6 6 5 4 5 6 6 6
17 8 14 5 2 2 2 2 7 3 2 2 1 1 3 2 2 1 2 2 2 3 3 2 1 1 4 2 4 6 6 4 5 3 2 3 3 6 6 5 6 6 4 6
8 2 2 2 2 6 8 2 3 3 3 4 3 2 3 3 2 1 1 1 2 2 0 2 2 2 4 8 6 5 7 7 7 4 4 2 2 6 7 7 5 5 6 7
0 2 2 2 3 3 3 3 4 4 2 3 3 3 2 1 2 1 1 1 1 2 1 1 1 1 4 9 8 7 7 7 7 7 6 4 5 5 6 6 6 7 8 8
3 6 5 2 1 0 2 2 1 2 3 2 2 2 1 2 1 1 0 1 0 1 0 0 1 2 8 8 10 11 9 8 7 5 5 6 4 5 7 7 8 8 9 10
2 2 2 2 2 3 4 5 2 2 2 1 1 1 1 1 0 0 1 2 1 1 0 1 2 4 7 9 9 10 9 8 7 7 6 4 5 6 8 8 8 10 10 10
1 2 3 3 3 3 3 2 2 1 2 1 0 1 0 0 1 0 1 1 0 1 1 2 2 7 9 9 9 9 11 9 7 7 6 5 5 5 7 8 8 10 11 9
1 1 3 3 1 2 1 1 1 1 0 1 1 1 1 1 0 1 0 1 0 0 1 1 4 7 7 8 8 8 8 8 7 6 5 3 4 5 5 6 8 9 10 11
0 2 2 1 0 1 0 0 1 1 1 1 2 1 1 2 1 1 3 1 2 2 1 2 3 5 6 6 7 7 7 7 6 5 4 1 3 4 5 6 6 8 10 11
2 2 1 1 1 0 1 1 2 2 1 1 1 2 3 2 1 2 1 3 2 2 3 2 3 5 6 7 8 8 7 7 6 5 5 2 3 6 6 6 2 6 6 7
Wind_Direction
351 349 345 348 346 346 339 346 350 328 347 56 177 323 331 328 4 319 271 300 96 148 125 143 129 181 190 184 156 154 161 104 139 201 202 188 166 185 178 130 279 245 156 267
357 351 348 349 350 349 335 346 302 336 21 50 319 350 312 328 5 265 106 193 106 140 110 135 167 125 307 171 172 155 163 350 105 122 320 167 209 208 213 219 75 214 123 258
359 354 354 348 354 348 24 317 332 325 50 235 332 309 296 333 283 274 323 60 116 92 90 63 125 107 38 80 110 130 102 173 165 174 197 150 206 197 214 199 186 194 225 275
1 357 356 352 356 350 21 354 343 18 318 277 214 341 315 320 326 323 312 97 120 133 125 127 127 100 91 44 57 73 97 180 272 275 258 258 212 210 211 209 224 226 164 256
2 6 4 359 1 351 58 354 331 340 294 291 270 226 9 333 14 352 17 139 135 74 48 169 140 129 123 158 34 103 64 207 334 277 247 239 247 233 224 229 229 239 255 269
356 356 357 357 1 10 329 340 266 270 289 298 49 41 272 325 339 15 7 98 76 64 41 66 84 125 157 152 138 114 112 136 262 268 320 316 292 236 219 230 226 233 244 254
350 356 356 352 357 7 316 319 288 314 311 303 354 348 117 84 274 290 44 61 81 90 42 58 36 45 50 102 143 130 139 187 235 267 342 239 243 166 175 207 254 226 246 265
344 354 355 352 357 352 27 310 328 310 293 315 307 351 78 126 29 25 46 28 94 99 45 67 59 25 32 3 72 138 154 192 244 212 253 288 66 213 188 168 297 247 236 256
339 345 348 347 355 346 3 240 267 295 307 244 285 315 331 97 74 41 64 43 32 57 75 79 163 177 160 174 170 91 135 77 193 264 276 252 294 247 141 111 278 214 204 223
333 336 339 339 350 346 345 253 195 256 269 268 330 303 257 128 109 149 105 97 12 37 98 130 194 279 121 160 179 178 166 195 221 237 281 285 261 165 111 255 241 199 207 202
325 323 327 332 334 336 3 281 178 249 277 283 265 310 352 1 51 139 197 64 347 57 143 152 215 236 268 152 173 171 175 180 196 199 222 266 204 102 149 238 260 239 206 213
320 320 318 321 318 311 330 281 229 196 235 273 294 273 274 278 192 125 148 186 151 160 130 49 353 282 288 207 226 151 200 187 182 185 215 238 243 254 266 265 231 256 224 183
313 312 309 321 318 305 271 235 282 283 255 260 276 265 179 171 166 205 129 275 163 181 146 133 242 258 174 256 238 190 242 182 226 128 260 246 273 286 273 358 20 21 4 205
312 311 308 310 309 295 283 195 248 325 271 283 301 65 127 143 48 50 95 142 79 100 109 154 234 260 200 253 260 212 206 145 204 258 289 294 286 125 242 110 60 64 11 280
311 313 308 301 296 278 277 230 234 220 281 314 295 317 255 74 85 143 121 150 136 147 171 198 225 235 276 243 307 247 207 195 171 219 241 213 242 188 125 154 198 165 147 65
321 310 302 299 283 242 243 275 180 192 178 266 278 242 186 161 174 168 193 200 184 176 165 191 230 231 216 245 242 251 238 231 201 219 221 184 157 144 137 132 120 119 110 111
323 316 305 267 248 175 210 320 10 139 115 249 279 289 109 145 183 216 175 181 198 205 196 219 221 291 225 228 249 290 303 351 18 324 8 242 184 226 120 113 111 103 81 80
331 324 294 189 181 196 267 242 211 150 257 264 261 268 316 178 198 231 169 230 168 186 252 229 186 166 217 258 256 304 339 14 45 14 14 98 114 102 103 108 113 106 102 102
336 358 93 91 80 195 236 112 132 147 289 284 195 218 259 161 241 196 180 231 193 155 206 257 32 166 209 282 326 341 352 346 315 359 39 147 150 163 158 148 147 133 140 123
320 278 253 208 198 118 126 181 140 174 214 221 247 212 265 162 224 209 227 98 229 233 243 347 203 252 68 19 342 341 328 317 318 298 296 254 210 189 185 187 166 157 156 141
331 253 250 355 284 207 203 196 189 182 225 198 223 211 255 7 245 275 212 199 227 255 104 228 196 93 352 342 339 333 324 315 302 271 266 268 234 188 175 171 165 149 146 145
293 298 290 270 261 223 200 205 78 172 224 152 195 180 235 292 330 210 238 219 271 299 339 311 68 64 341 337 335 331 326 327 325 345 324 304 256 165 152 145 141 142 134 137
262 205 280 196 256 181 209 187 203 207 192 234 355 231 205 287 53 45 87 245 186 285 131 82 82 344 340 338 340 337 337 348 354 347 336 315 130 125 134 134 138 137 140 145
256 223 227 200 174 241 199 195 153 242 88 116 129 302 259 300 42 186 284 89 81 106 81 251 7 343 332 334 337 339 344 348 351 351 352 35 107 117 127 140 146 145 146 140
276 267 241 209 146 56 78 22 100 19 307 37 44 352 57 309 312 135 310 290 341 274 100 68 317 322 321 328 336 336 342 341 341 346 5 39 95 118 121 138 145 144 138 138
206 244 273 231 189 198 150 79 97 358 23 51 58 19 350 258 166 138 215 184 208 157 325 266 297 313 319 324 329 333 340 339 344 348 350 56 139 135 116 103 126 143 144 142
231 254 250 310 318 74 108 123 76 338 65 166 159 212 231 3 166 253 38 174 139 223 272 266 311 321 324 334 340 348 346 352 355 346 353 3 88 102 105 119 85 112 118 130